Weather in Staraya Shentala

Russia / Samara Oblast     54°23′32″N   51°29′17″E
temp.,
°C
wind,
m/s
gust,
m/s
humid.,
%
clouds,
%
prec.,
mm/h
press.,
hPa
HPBL,
m
2 march, tue
tue201:00−19ssw46998 0.0 101883
04:00−15ssw6109754 0.0 1015248
07:00−13ssw81495100 0.1 1010356
10:00−10ssw81394100 1.1 1007491
13:00−6ssw91594100 1.1 1004626
16:00−1sw91596100 2.4 1001810
19:000wsw71198100 1.8 999586
22:00−1w5109699 2.3 999416
3 march, wed
wed301:00−6wsw499770 0.0 999179
04:00−5w599681 0.1 1000357
07:00−8wsw499699 0.2 1001202
10:00−6w479699 0.3 1002254
13:00−4w589394 0.1 1002578
16:00−4w599497 0.4 1003683
19:00−7w5109599 0.3 1003361
22:00−7nw6119498 0.6 1006515
4 march, thu
thu401:00−9wnw4896100 0.2 1006244
04:00−11w499799 0.3 1007207
07:00−12wsw5896100 0.1 1007194
10:00−9wsw6109499 0.2 1007305
13:00−6sw61094100 0.1 1006534
16:00−3sw81392100 0.3 1004886
19:00−3sw91695100 1.0 1002848
22:00−1sw111793100 1.6 1000944
5 march, fri
fri501:00−1sw101791100 0.5 998923
04:00−2sw91694100 0.9 998919
07:00−2wsw91596100 1.1 1000767
10:00−1w71096100 2.4 1002704
13:00−2w5981100 0.2 1004658
16:00−2wnw3685100 0.3 1006599
19:00−7nw359398 0.0 100897
22:00−11nw229496 0.0 101021
6 march, sat
sat601:00−12e1193100 0.0 101121
04:00−9ese3592100 0.0 1009133
07:00−8e61095100 2.2 1004308
10:00−4se5997100 5.4 1000295
13:00−2wnw3699100 3.7 998328
16:00−7nnw6894100 5.6 999431
19:00−11nw4796100 0.1 1003172
22:00−13wnw359894 0.1 100790